| time (UTC) | temp C | wind direction | speed KPH | gust KPH | rain 1hr cm | rain 24hr cm | rain mn cm | humidity % | barometer mb |
| 20260506014003 | 8 | 3 | 9.7 | 22.5 | 0.00 | 0.00 | 0.00 | 45 | 1014.9 |
| 20260506013003 | 7 | 295 | 6.4 | 19.3 | 0.00 | 0.00 | 0.00 | 44 | 1014.7 |
| 20260506011002 | 8 | 341 | 9.7 | 27.4 | 0.00 | 0.00 | 0.00 | 42 | 1014.4 |
| 20260506010002 | 8 | 316 | 4.8 | 32.2 | 0.00 | 0.00 | 0.00 | 42 | 1014.6 |
| 20260506005003 | 8 | 321 | 9.7 | 27.4 | 0.00 | 0.00 | 0.00 | 41 | 1014.4 |
| 20260506004003 | 8 | 297 | 12.9 | 40.2 | 0.00 | 0.00 | 0.00 | 40 | 1014.5 |
| 20260506003004 | 8 | 294 | 20.9 | 38.6 | 0.00 | 0.00 | 0.00 | 39 | 1014.3 |
| 20260506002003 | 9 | 301 | 14.5 | 35.4 | 0.00 | 0.00 | 0.00 | 39 | 1014.2 |
| 20260506001002 | 9 | 319 | 9.7 | 46.7 | 0.00 | 0.00 | 0.00 | 39 | 1014.3 |
| 20260506000002 | 10 | 305 | 19.3 | 46.7 | 0.00 | 0.00 | 0.00 | 38 | 1014.1 |
| 20260505235003 | 10 | 303 | 11.3 | 37.0 | 0.00 | 0.00 | 0.00 | 38 | 1014.1 |
| 20260505234003 | 10 | 320 | 19.3 | 37.0 | 0.00 | 0.00 | 0.00 | 38 | 1014.2 |
| 20260505233003 | 10 | 319 | 17.7 | 45.1 | 0.00 | 0.00 | 0.00 | 37 | 1014.2 |
| 20260505232003 | 10 | 299 | 22.5 | 32.2 | 0.00 | 0.00 | 0.00 | 37 | 1014.3 |
| 20260505230002 | 10 | 289 | 22.5 | 48.3 | 0.00 | 0.00 | 0.00 | 37 | 1014.1 |
| 20260505225003 | 11 | 273 | 22.5 | 41.8 | 0.00 | 0.00 | 0.00 | 36 | 1013.7 |
| 20260505224003 | 10 | 286 | 14.5 | 45.1 | 0.00 | 0.00 | 0.00 | 36 | 1013.7 |
| 20260505223003 | 11 | 303 | 22.5 | 45.1 | 0.00 | 0.00 | 0.00 | 36 | 1013.7 |
| 20260505221003 | 11 | 319 | 22.5 | 45.1 | 0.00 | 0.00 | 0.00 | 36 | 1013.5 |
| 20260505220003 | 11 | 292 | 30.6 | 45.1 | 0.00 | 0.00 | 0.00 | 36 | 1013.5 |
| 20260505215003 | 11 | 275 | 17.7 | 40.2 | 0.00 | 0.00 | 0.00 | 34 | 1013.5 |
| 20260505214003 | 11 | 299 | 25.7 | 46.7 | 0.00 | 0.00 | 0.00 | 34 | 1013.7 |
| 20260505213002 | 11 | 300 | 20.9 | 37.0 | 0.00 | 0.00 | 0.00 | 37 | 1013.4 |
| 20260505212004 | 11 | 299 | 17.7 | 41.8 | 0.00 | 0.00 | 0.00 | 37 | 1013.3 |
| 20260505211003 | 10 | 280 | 16.1 | 40.2 | 0.00 | 0.00 | 0.00 | 36 | 1013.3 |
| 20260505210003 | 12 | 274 | 16.1 | 38.6 | 0.00 | 0.00 | 0.00 | 36 | 1013.1 |
| 20260505205003 | 11 | 278 | 16.1 | 46.7 | 0.00 | 0.00 | 0.00 | 36 | 1013.0 |
| 20260505204002 | 11 | 297 | 20.9 | 40.2 | 0.00 | 0.00 | 0.00 | 38 | 1013.3 |
| 20260505203003 | 11 | 247 | 16.1 | 37.0 | 0.00 | 0.00 | 0.00 | 37 | 1013.1 |
| 20260505202004 | 12 | 240 | 11.3 | 38.6 | 0.00 | 0.00 | 0.00 | 34 | 1013.3 |
| 20260505200003 | 11 | 259 | 12.9 | 37.0 | 0.00 | 0.00 | 0.00 | 37 | 1013.2 |
| 20260505195003 | 11 | 286 | 17.7 | 48.3 | 0.00 | 0.00 | 0.00 | 37 | 1013.3 |
| 20260505194003 | 11 | 297 | 24.1 | 48.3 | 0.00 | 0.00 | 0.00 | 39 | 1013.0 |
| 20260505193003 | 11 | 275 | 12.9 | 37.0 | 0.00 | 0.00 | 0.00 | 38 | 1012.8 |
| 20260505192003 | 11 | 290 | 16.1 | 45.1 | 0.00 | 0.00 | 0.00 | 38 | 1012.8 |
| 20260505191002 | 11 | 281 | 17.7 | 35.4 | 0.00 | 0.00 | 0.00 | 37 | 1012.7 |
| 20260505190003 | 12 | 257 | 8.0 | 37.0 | 0.00 | 0.00 | 0.00 | 37 | 1012.6 |
| 20260505185003 | 12 | 287 | 14.5 | 33.8 | 0.00 | 0.00 | 0.00 | 36 | 1012.8 |
| 20260505184002 | 11 | 279 | 24.1 | 35.4 | 0.00 | 0.00 | 0.00 | 36 | 1012.7 |
| 20260505183004 | 12 | 282 | 19.3 | 48.3 | 0.00 | 0.00 | 0.00 | 34 | 1012.3 |
| 20260505182003 | 11 | 299 | 20.9 | 41.8 | 0.00 | 0.00 | 0.00 | 36 | 1012.5 |
| 20260505180003 | 12 | 234 | 12.9 | 25.7 | 0.00 | 0.00 | 0.00 | 34 | 1012.3 |
| 20260505175003 | 11 | 232 | 14.5 | 38.6 | 0.00 | 0.00 | 0.00 | 34 | 1012.4 |
| 20260505174003 | 11 | 264 | 16.1 | 33.8 | 0.00 | 0.00 | 0.00 | 36 | 1012.3 |
| 20260505172003 | 11 | 262 | 14.5 | 35.4 | 0.00 | 0.00 | 0.00 | 40 | 1012.4 |
| 20260505171003 | 10 | 290 | 19.3 | 33.8 | 0.00 | 0.00 | 0.00 | 38 | 1012.1 |
| 20260505170003 | 10 | 223 | 8.0 | 24.1 | 0.00 | 0.00 | 0.00 | 43 | 1012.0 |
| 20260505165002 | 10 | 269 | 14.5 | 37.0 | 0.00 | 0.00 | 0.00 | 44 | 1011.9 |
| 20260505164003 | 10 | 286 | 11.3 | 32.2 | 0.00 | 0.00 | 0.00 | 43 | 1011.9 |
| 20260505163003 | 10 | 242 | 9.7 | 37.0 | 0.00 | 0.00 | 0.00 | 44 | 1012.0 |
| 20260505162002 | 10 | 220 | 9.7 | 40.2 | 0.00 | 0.00 | 0.00 | 44 | 1012.0 |
| 20260505161003 | 10 | 292 | 16.1 | 33.8 | 0.00 | 0.00 | 0.00 | 45 | 1011.8 |
| 20260505153003 | 9 | 284 | 14.5 | 32.2 | 0.00 | 0.00 | 0.00 | 46 | 1011.8 |
| 20260505152002 | 10 | 266 | 14.5 | 33.8 | 0.00 | 0.00 | 0.00 | 46 | 1012.0 |
| 20260505151003 | 9 | 318 | 9.7 | 37.0 | 0.00 | 0.00 | 0.00 | 46 | 1012.1 |
| 20260505125003 | 7 | 216 | 8.0 | 20.9 | 0.00 | 0.00 | 0.00 | 53 | 1011.8 |
| 20260505124003 | 7 | 254 | 4.8 | 24.1 | 0.00 | 0.00 | 0.00 | 53 | 1011.3 |
| 20260505123003 | 7 | 247 | 4.8 | 19.3 | 0.00 | 0.00 | 0.00 | 53 | 1011.1 |
| 20260505122003 | 7 | 217 | 8.0 | 16.1 | 0.00 | 0.00 | 0.00 | 53 | 1011.0 |
| 20260505121003 | 6 | 281 | 4.8 | 14.5 | 0.00 | 0.00 | 0.00 | 54 | 1011.1 |
| 20260505115003 | 6 | 264 | 4.8 | 16.1 | 0.00 | 0.00 | 0.00 | 57 | 1010.8 |
| 20260505113003 | 5 | 336 | 4.8 | 11.3 | 0.00 | 0.00 | 0.00 | 59 | 1010.8 |
| 20260505112003 | 5 | 136 | 1.6 | 8.0 | 0.00 | 0.00 | 0.00 | 60 | 1010.6 |
| 20260505111003 | 4 | 110 | 4.8 | 8.0 | 0.00 | 0.00 | 0.00 | 61 | 1010.5 |
| 20260505102004 | 5 | 182 | 3.2 | 4.8 | 0.00 | 0.00 | 0.00 | 59 | 1009.9 |
| 20260505101003 | 5 | 178 | 1.6 | 8.0 | 0.00 | 0.00 | 0.00 | 57 | 1009.7 |
| 20260505100003 | 5 | 166 | 3.2 | 8.0 | 0.00 | 0.00 | 0.00 | 55 | 1009.6 |
| 20260505095003 | 5 | 153 | 3.2 | 8.0 | 0.00 | 0.00 | 0.00 | 55 | 1009.8 |
| 20260505094003 | 5 | 148 | 1.6 | 4.8 | 0.00 | 0.00 | 0.00 | 56 | 1009.4 |
| 20260505093003 | 5 | 140 | 1.6 | 4.8 | 0.00 | 0.00 | 0.00 | 55 | 1009.3 |
| 20260505092003 | 5 | 145 | 3.2 | 4.8 | 0.00 | 0.00 | 0.00 | 53 | 1009.1 |
| 20260505090003 | 5 | 157 | 3.2 | 4.8 | 0.00 | 0.00 | 0.00 | 51 | 1008.7 |
| 20260505085003 | 6 | 150 | 1.6 | 4.8 | 0.00 | 0.00 | 0.00 | 49 | 1008.4 |
| 20260505084004 | 6 | 317 | 3.2 | 8.0 | 0.00 | 0.00 | 0.00 | 48 | 1008.1 |
| 20260505082003 | 6 | 36 | 3.2 | 11.3 | 0.00 | 0.00 | 0.00 | 48 | 1008.3 |
| 20260505080003 | 7 | 296 | 9.7 | 25.7 | 0.00 | 0.00 | 0.00 | 44 | 1008.1 |
| 20260505075003 | 7 | 293 | 11.3 | 33.8 | 0.00 | 0.00 | 0.00 | 44 | 1008.0 |
| 20260505073003 | 7 | 296 | 19.3 | 35.4 | 0.00 | 0.00 | 0.00 | 42 | 1008.0 |
| 20260505072003 | 7 | 286 | 14.5 | 29.0 | 0.00 | 0.00 | 0.00 | 43 | 1007.6 |
| 20260505071003 | 7 | 294 | 16.1 | 41.8 | 0.00 | 0.00 | 0.00 | 42 | 1007.9 |
| 20260505070003 | 8 | 314 | 14.5 | 35.4 | 0.00 | 0.00 | 0.00 | 46 | 1007.8 |
| 20260505065003 | 8 | 324 | 17.7 | 33.8 | 0.00 | 0.00 | 0.00 | 46 | 1007.4 |
| 20260505064003 | 8 | 308 | 16.1 | 29.0 | 0.00 | 0.00 | 0.00 | 47 | 1007.4 |
| 20260505062003 | 9 | 301 | 20.9 | 33.8 | 0.00 | 0.00 | 0.00 | 47 | 1007.2 |
| 20260505061003 | 9 | 301 | 20.9 | 48.3 | 0.00 | 0.00 | 0.00 | 47 | 1006.9 |
| 20260505060003 | 10 | 300 | 16.1 | 40.2 | 0.00 | 0.00 | 0.00 | 48 | 1006.9 |
| 20260505055003 | 10 | 308 | 11.3 | 33.8 | 0.00 | 0.00 | 0.00 | 47 | 1006.7 |
| 20260505054003 | 10 | 310 | 11.3 | 29.0 | 0.00 | 0.00 | 0.00 | 48 | 1006.4 |
| 20260505052002 | 11 | 318 | 19.3 | 35.4 | 0.00 | 0.00 | 0.00 | 47 | 1006.1 |
| 20260505051003 | 11 | 308 | 14.5 | 38.6 | 0.00 | 0.00 | 0.00 | 46 | 1006.0 |
| 20260505041003 | 13 | 350 | 8.0 | 25.7 | 0.00 | 0.00 | 0.00 | 43 | 1004.6 |
| 20260505040003 | 13 | 312 | 16.1 | 29.0 | 0.00 | 0.00 | 0.00 | 41 | 1004.4 |
| 20260505035003 | 13 | 297 | 14.5 | 25.7 | 0.00 | 0.00 | 0.00 | 40 | 1003.9 |
| 20260505034003 | 13 | 302 | 9.7 | 25.7 | 0.00 | 0.00 | 0.00 | 41 | 1003.5 |
| 20260505033003 | 13 | 307 | 14.5 | 27.4 | 0.00 | 0.00 | 0.00 | 40 | 1003.3 |
| 20260505031004 | 14 | 304 | 14.5 | 33.8 | 0.00 | 0.00 | 0.00 | 41 | 1002.5 |
| 20260505030004 | 14 | 298 | 20.9 | 48.3 | 0.00 | 0.00 | 0.00 | 41 | 1002.5 |
| 20260505025004 | 15 | 303 | 20.9 | 41.8 | 0.00 | 0.00 | 0.00 | 38 | 1002.2 |
| 20260505023003 | 15 | 301 | 22.5 | 45.1 | 0.00 | 0.00 | 0.00 | 36 | 1002.0 |
| 20260505022003 | 15 | 293 | 11.3 | 40.2 | 0.00 | 0.00 | 0.00 | 37 | 1001.9 |
| 20260505021004 | 16 | 286 | 20.9 | 46.7 | 0.00 | 0.00 | 0.00 | 35 | 1001.4 |
| 20260505020003 | 16 | 303 | 8.0 | 32.2 | 0.00 | 0.00 | 0.00 | 37 | 1001.1 |
| 20260505015003 | 16 | 297 | 24.1 | 33.8 | 0.00 | 0.00 | 0.00 | 36 | 1000.8 |